Location: Clyde
(45.1830°S, 169.3170°E)
Time: 05:08:04
(UTC+13:00)

USA 186 - Pass Details

Date: 24 January 2019
Orbit: 262 x 443 km, 96.9° (Epoch: 04 October)

Event Time Altitude Azimuth Distance (km) Brightness Sun altitude
Rises 22:53:41 0° 182° (S) 2,285 6.3 -13.6°
Reaches altitude 10° 22:56:00 10° 198° (SSW) 1,390 5.5 -13.9°
Maximum altitude 22:58:17 21° 249° (WSW) 897 4.3 -14.1°
Drops below altitude 10° 23:00:27 10° 300° (WNW) 1,308 4.4 -14.4°
Sets 23:02:33 0° 317° (NW) 2,103 5.3 -14.6°
